[[{"header":{"parameterUnit":"m.s-1","parameterCategory":1,"la1":30.2991,"la2":30.254,"lo1":-89.0895,"lo2":-89.0444,"dy":0.0017,"dx":0.0017,"nx":28,"ny":28,"refTime":"2025-09-13T03:00:00:Z","depth":0,"parameterNumber":2,"parameterNumberName":"U-component_of_WINDS"},"data":[0,0,0,0,0,0,0,0,0,0,0,0,0,0,0,0,0,0,0,0,0,0,0,0,0,0,0,0,0,0,0,0,0,0,0,0,0,0,0,0,0,0,0,0,0,0,0,0,0,0,0,0,0,0,0,0,0,0,1.5837,1.5836,0,1.5779,1.5778,1.5777,1.5658,1.5656,1.5653,1.5651,1.5593,1.5593,1.5594,0,0,0,0,0,0,0,0,0,0,0,0,0,1.5848,1.5849,1.5837,1.5836,1.5835,1.5779,1.5778,1.5777,1.5658,1.5656,1.5653,1.565,1.5593,1.5593,1.5594,0,0,0,0,0,0,0,0,0,0,0,0,0,1.5822,1.5849,1.5837,1.5769,1.5763,1.5779,1.5778,1.5777,1.5659,1.5656,1.5652,1.5649,1.5592,1.5593,1.5594,1.5672,0,0,1.5597,1.5598,0,0,0,0,0,0,0,0,1.5824,1.5822,1.578,1.5774,1.5767,1.5722,1.576,1.5742,1.566,1.5699,1.5651,1.5647,1.5639,1.5636,1.5633,1.5669,1.5667,1.5597,1.5598,1.5598,1.5599,0,0,0,0,0,0,0,1.5826,1.5824,1.5814,1.578,1.5772,1.5743,1.5735,1.5756,1.5689,1.5695,1.5686,1.5681,1.5634,1.5632,1.563,1.5666,1.5597,1.5598,1.5599,1.5599,1.5765,1.5769,0,0,0,0,0,0,1.5837,1.5826,1.5816,1.5812,1.5787,1.5746,1.5737,1.574,1.5689,1.5678,1.5684,1.5675,1.5632,1.5629,1.5628,1.5717,1.5598,1.5599,1.56,1.5761,1.5766,1.577,0,0,0,0,0,0,1.5838,1.5837,1.5818,1.5817,1.5812,1.5749,1.5753,1.5741,1.5738,1.568,1.5668,1.5694,1.5629,1.5626,1.5662,1.5713,1.56,1.5601,1.5757,1.5763,1.5768,1.5895,0,0,0,0,0,0,1.5839,1.5838,1.5866,1.5818,1.5813,1.5853,1.5756,1.5742,1.574,1.5728,1.5686,1.5676,1.5626,1.5661,1.5663,1.5712,1.5602,1.5752,1.576,1.5766,1.5886,1.5904,1.592,0,0,0,0,0,1.584,1.5904,1.5868,1.5868,1.5846,1.5856,1.5853,1.5794,1.5744,1.5773,1.5736,1.5677,1.5707,1.5666,1.5667,1.5717,1.5749,1.5757,1.5766,1.5878,1.59,1.5919,0,0,0,0,0,0,1.596,1.5897,1.5856,1.5907,1.5888,1.5836,1.587,1.5819,1.5814,1.5803,1.5731,1.5722,1.5768,1.5746,1.5701,1.5791,1.5719,1.5728,1.5804,1.5824,1.5841,1.5846,1.5602,0,0,0,0,0,1.5993,1.6005,1.5949,1.6,1.5992,1.5933,1.5935,1.5891,1.5869,1.586,1.5826,1.5807,1.5812,1.5817,1.5818,1.5882,1.5872,1.5917,1.5934,1.5948,1.5957,1.5991,1.6011,1.5798,1.5798,1.5798,0,0,1.606,1.6027,1.6039,1.6023,1.6003,1.6019,1.5927,1.5947,1.5958,1.5863,1.5895,1.587,1.5844,1.5894,1.5915,1.5877,1.6014,1.5959,1.5971,1.5972,1.6002,1.6023,1.6041,1.5804,1.5803,1.5802,0,0,1.6191,1.6167,1.6206,1.6189,1.6159,1.612,1.613,1.6086,1.6066,1.6096,1.6026,1.6039,1.6049,1.6034,1.6027,1.6155,1.6101,1.6158,1.6247,1.6281,1.6297,1.6312,1.6359,1.6377,1.6167,1.6167,1.6167,0,1.6278,1.6298,1.6234,1.6259,1.6254,1.6169,1.621,1.6196,1.617,1.6169,1.6127,1.6139,1.6115,1.6162,1.6194,1.6191,1.6201,1.6162,1.63,1.6314,1.6327,1.6371,1.6389,1.6174,1.6173,1.6172,1.6172,0,1.6408,1.6424,1.6459,1.6436,1.6436,1.6469,1.641,1.6418,1.6375,1.6341,1.6374,1.6343,1.6338,1.6346,1.6303,1.6387,1.6365,1.6313,1.6239,1.6355,1.6396,1.6412,1.6184,1.6182,1.618,1.6178,0,0,1.6613,1.6554,1.6569,1.6558,1.652,1.6531,1.6561,1.6556,1.6565,1.655,1.6574,1.6585,1.6537,1.653,1.6486,1.6516,1.6621,1.646,1.6458,1.6492,1.6714,1.6755,1.6775,1.6585,1.6588,1.6591,1.6717,0,1.6736,1.6783,1.6727,1.6786,1.6801,1.6721,1.6747,1.6728,1.6697,1.6706,1.6671,1.6681,1.6616,1.6612,1.6638,1.6603,1.6665,1.6593,1.6609,1.661,1.6619,1.6796,1.6838,1.6959,1.6732,1.6735,1.6737,0,1.6886,1.6878,1.694,1.69,1.6904,1.6928,1.692,1.6929,1.6906,1.6881,1.6875,1.6822,1.685,1.6778,1.6817,1.6769,1.6773,1.6757,1.676,1.676,1.6681,1.6802,1.6995,1.7014,1.676,1.6759,1.6757,0,1.7031,1.7036,1.7074,1.7067,1.7021,1.7041,1.7023,1.6996,1.6997,1.699,1.699,1.6987,1.6985,1.6985,1.6933,1.6885,1.6979,1.6902,1.6961,1.6962,1.6984,1.6984,1.7183,1.6985,1.6985,1.6985,1.6984,0,1.7175,1.7216,1.7139,1.7162,1.7206,1.7142,1.7188,1.7161,1.7139,1.7157,1.7088,1.7106,1.7036,1.7048,1.7008,1.7047,1.7047,1.7029,1.7018,1.7036,1.7038,1.7037,1.7028,1.6989,1.6988,1.6987,1.6987,0,1.7345,1.7294,1.733,1.7284,1.7274,1.7309,1.727,1.7291,1.7255,1.7279,1.7281,1.7227,1.7237,1.7185,1.7186,1.7159,1.722,1.7194,1.7228,1.722,1.7282,1.7278,1.7488,1.7513,1.7299,1.7301,1.7303,0,1.7441,1.747,1.7428,1.7435,1.742,1.7432,1.7433,1.7371,1.7375,1.7353,1.7377,1.7381,1.7381,1.7402,1.7363,1.7364,1.7339,1.7413,1.7339,1.7356,1.7342,1.7341,1.7345,1.7428,1.7431,1.7433,1.7435,0,1.7617,1.759,1.7594,1.759,1.7593,1.7586,1.7575,1.7585,1.7518,1.7527,1.7536,1.7537,1.7538,1.7545,1.7538,1.752,1.7468,1.7459,1.7472,1.7491,1.751,1.7503,1.7271,1.7454,1.7452,1.7451,1.745,1.7449,1.7753,1.7776,1.7751,1.7757,1.7743,1.7735,1.7752,1.772,1.7726,1.7723,1.7686,1.7703,1.7682,1.7667,1.7655,1.7669,1.7634,1.7654,1.7659,1.7665,1.7677,1.7508,1.7667,1.7667,1.7666,1.7665,1.7665,0,1.7927,1.7906,1.7913,1.79,1.7906,1.7855,1.7841,1.785,1.7866,1.785,1.7852,1.7864,1.787,1.7833,1.7834,1.7852,1.7828,1.7855,1.7854,1.7851,1.7707,1.7695,1.7874,1.7874,1.7874,1.7874,1.7874,1.7874,1.8018,1.8055,1.8027,1.8057,1.8036,1.8052,1.8049,1.8042,1.8029,1.8046,1.805,1.8025,1.8001,1.8001,1.8005,1.7994,1.7998,1.8034,1.8015,1.7881,1.7861,1.7841,1.783,1.8035,1.8035,1.8157,1.8158,1.8159]},{"header":{"parameterUnit":"m.s-1","parameterCategory":1,"la1":30.2991,"la2":30.254,"lo1":-89.0895,"lo2":-89.0444,"dy":0.0017,"dx":0.0017,"nx":28,"ny":28,"refTime":"2025-09-13T03:00:00:Z","depth":0,"parameterNumber":3,"parameterNumberName":"V-component_of_WINDS"},"data":[0,0,0,0,0,0,0,0,0,0,0,0,0,0,0,0,0,0,0,0,0,0,0,0,0,0,0,0,0,0,0,0,0,0,0,0,0,0,0,0,0,0,0,0,0,0,0,0,0,0,0,0,0,0,0,0,0,0,-1.8479,-1.848,0,-1.8559,-1.856,-1.8561,-1.858,-1.858,-1.8579,-1.8579,-1.8658,-1.8661,-1.8663,0,0,0,0,0,0,0,0,0,0,0,0,0,-1.834,-1.8343,-1.8479,-1.848,-1.8481,-1.8559,-1.856,-1.8561,-1.858,-1.858,-1.8579,-1.8579,-1.8657,-1.866,-1.8664,0,0,0,0,0,0,0,0,0,0,0,0,0,-1.8408,-1.8344,-1.8479,-1.85,-1.8503,-1.8559,-1.856,-1.8562,-1.8581,-1.858,-1.8579,-1.8578,-1.8656,-1.866,-1.8664,-1.8704,0,0,-1.8676,-1.8678,0,0,0,0,0,0,0,0,-1.8405,-1.8414,-1.8496,-1.8499,-1.8502,-1.8559,-1.8541,-1.8609,-1.8581,-1.8551,-1.8579,-1.8578,-1.8626,-1.8632,-1.8649,-1.8708,-1.8711,-1.8676,-1.8679,-1.868,-1.8681,0,0,0,0,0,0,0,-1.84,-1.841,-1.8511,-1.8497,-1.8501,-1.8505,-1.8514,-1.8554,-1.8592,-1.8553,-1.8555,-1.8564,-1.8627,-1.8645,-1.8651,-1.8712,-1.8676,-1.868,-1.8682,-1.8684,-1.8809,-1.881,0,0,0,0,0,0,-1.8392,-1.8406,-1.8508,-1.8513,-1.845,-1.8508,-1.8518,-1.8541,-1.8591,-1.8598,-1.8565,-1.8565,-1.8639,-1.8646,-1.8654,-1.8704,-1.868,-1.8684,-1.8686,-1.8808,-1.8809,-1.881,0,0,0,0,0,0,-1.8389,-1.8401,-1.8505,-1.846,-1.8474,-1.8511,-1.8538,-1.8543,-1.8561,-1.86,-1.8607,-1.8576,-1.8638,-1.8648,-1.8692,-1.8707,-1.8686,-1.8689,-1.8807,-1.8808,-1.881,-1.8805,0,0,0,0,0,0,-1.8385,-1.8399,-1.8415,-1.846,-1.8476,-1.8542,-1.8538,-1.8546,-1.8568,-1.8569,-1.8612,-1.8619,-1.8638,-1.8686,-1.8696,-1.8712,-1.8692,-1.8805,-1.8807,-1.8809,-1.8804,-1.8806,-1.8808,0,0,0,0,0,-1.838,-1.841,-1.8416,-1.8428,-1.8497,-1.8543,-1.8552,-1.8574,-1.8569,-1.8586,-1.8611,-1.8617,-1.8704,-1.869,-1.8701,-1.8719,-1.8805,-1.8807,-1.8809,-1.8803,-1.8806,-1.8808,0,0,0,0,0,0,-1.8364,-1.8416,-1.8423,-1.8469,-1.8502,-1.8546,-1.8567,-1.8576,-1.861,-1.8609,-1.8635,-1.8645,-1.8687,-1.8707,-1.8691,-1.8761,-1.8754,-1.8759,-1.8746,-1.8749,-1.8751,-1.8744,-1.8696,0,0,0,0,0,-1.8367,-1.8401,-1.8444,-1.848,-1.8496,-1.8529,-1.855,-1.8565,-1.8599,-1.8612,-1.864,-1.8672,-1.8707,-1.8729,-1.8763,-1.8807,-1.8817,-1.8825,-1.8827,-1.8829,-1.8832,-1.8858,-1.8862,-1.8817,-1.8817,-1.8817,0,0,-1.8371,-1.8404,-1.8423,-1.8478,-1.8505,-1.8539,-1.854,-1.8576,-1.8601,-1.8617,-1.866,-1.8682,-1.872,-1.8764,-1.8785,-1.8783,-1.8847,-1.8832,-1.8833,-1.8835,-1.886,-1.8864,-1.8868,-1.8819,-1.8819,-1.8818,0,0,-1.8397,-1.8425,-1.8459,-1.8486,-1.8527,-1.8549,-1.8557,-1.86,-1.8616,-1.866,-1.8673,-1.8703,-1.8762,-1.8789,-1.881,-1.8847,-1.8854,-1.8857,-1.8868,-1.8892,-1.8896,-1.8899,-1.8912,-1.8916,-1.8861,-1.8861,-1.8861,0,-1.8397,-1.8449,-1.8474,-1.851,-1.8534,-1.8552,-1.8586,-1.8611,-1.866,-1.8676,-1.8673,-1.8748,-1.8774,-1.8825,-1.8835,-1.8851,-1.8861,-1.8852,-1.8893,-1.8897,-1.89,-1.8913,-1.8918,-1.8861,-1.8861,-1.8861,-1.8861,0,-1.8447,-1.8483,-1.8506,-1.8554,-1.8581,-1.8615,-1.8645,-1.8669,-1.8682,-1.8704,-1.8749,-1.8782,-1.8823,-1.8836,-1.8849,-1.8889,-1.8887,-1.8888,-1.8882,-1.8904,-1.8916,-1.8921,-1.8861,-1.8861,-1.8861,-1.8861,0,0,-1.8464,-1.8528,-1.8535,-1.8558,-1.8605,-1.8633,-1.8669,-1.8711,-1.873,-1.8764,-1.8794,-1.8845,-1.8847,-1.8871,-1.8887,-1.8908,-1.8936,-1.8907,-1.8908,-1.8911,-1.8983,-1.8981,-1.8986,-1.8942,-1.8943,-1.8944,-1.8979,0,-1.8495,-1.856,-1.8584,-1.8637,-1.8671,-1.8689,-1.872,-1.8752,-1.8774,-1.8806,-1.883,-1.8865,-1.8865,-1.888,-1.8902,-1.8928,-1.895,-1.8926,-1.8969,-1.8971,-1.8959,-1.8993,-1.8991,-1.9023,-1.8984,-1.8985,-1.8986,0,-1.854,-1.8575,-1.8632,-1.8676,-1.8691,-1.8719,-1.8759,-1.8789,-1.8826,-1.8841,-1.8868,-1.8883,-1.8921,-1.8913,-1.8965,-1.8948,-1.8967,-1.8983,-1.8984,-1.8989,-1.8979,-1.8997,-1.9034,-1.9038,-1.8994,-1.8993,-1.8993,0,-1.8546,-1.8608,-1.865,-1.8669,-1.8722,-1.8741,-1.8763,-1.88,-1.8823,-1.8859,-1.8874,-1.8913,-1.8934,-1.8963,-1.8988,-1.898,-1.9038,-1.9032,-1.9051,-1.905,-1.9061,-1.906,-1.9101,-1.9075,-1.9075,-1.9075,-1.9075,0,-1.8578,-1.8611,-1.8654,-1.868,-1.8718,-1.8746,-1.8783,-1.8807,-1.884,-1.887,-1.8888,-1.8916,-1.8948,-1.898,-1.8999,-1.904,-1.9049,-1.9061,-1.9066,-1.9059,-1.9058,-1.9072,-1.907,-1.9076,-1.9076,-1.9075,-1.9075,0,-1.8591,-1.8621,-1.8668,-1.8714,-1.8727,-1.8753,-1.8793,-1.8818,-1.8842,-1.888,-1.8891,-1.8927,-1.8966,-1.8994,-1.9043,-1.9057,-1.91,-1.9105,-1.9088,-1.909,-1.9107,-1.9104,-1.9157,-1.9165,-1.9134,-1.9135,-1.9135,0,-1.8609,-1.8635,-1.8685,-1.8707,-1.873,-1.8766,-1.879,-1.8819,-1.8844,-1.8889,-1.8909,-1.895,-1.8983,-1.9044,-1.9075,-1.9113,-1.9119,-1.9135,-1.9124,-1.9117,-1.9119,-1.9117,-1.9119,-1.9136,-1.9136,-1.9136,-1.9136,0,-1.8637,-1.8651,-1.8686,-1.8727,-1.8757,-1.879,-1.8823,-1.884,-1.8875,-1.8902,-1.8943,-1.8969,-1.9021,-1.906,-1.9102,-1.9125,-1.9136,-1.9139,-1.9146,-1.9139,-1.9128,-1.9134,-1.9091,-1.9138,-1.9138,-1.9137,-1.9137,-1.9137,-1.8653,-1.8678,-1.8717,-1.8756,-1.8785,-1.8816,-1.8843,-1.887,-1.8905,-1.8949,-1.8964,-1.9006,-1.9043,-1.9101,-1.9124,-1.9157,-1.9157,-1.9166,-1.9168,-1.9169,-1.9169,-1.9123,-1.9165,-1.9165,-1.9165,-1.9165,-1.9165,0,-1.8682,-1.8709,-1.8745,-1.8792,-1.8822,-1.8832,-1.887,-1.8895,-1.8932,-1.8966,-1.8999,-1.9046,-1.9085,-1.9119,-1.916,-1.918,-1.9186,-1.9189,-1.9188,-1.9193,-1.9167,-1.9158,-1.9184,-1.9184,-1.9184,-1.9184,-1.9184,-1.9184,-1.8701,-1.8744,-1.8763,-1.882,-1.8846,-1.8888,-1.8909,-1.8938,-1.8965,-1.9017,-1.905,-1.9073,-1.9107,-1.915,-1.9186,-1.9195,-1.9209,-1.9211,-1.9221,-1.9197,-1.9194,-1.9192,-1.9183,-1.9214,-1.9214,-1.9244,-1.9244,-1.9245]}]]